[[{"header":{"parameterUnit":"m.s-1","parameterCategory":1,"la1":30.2991,"la2":30.254,"lo1":-89.0895,"lo2":-89.0444,"dy":0.0017,"dx":0.0017,"nx":28,"ny":28,"refTime":"2026-01-07T09:00:00:Z","depth":0,"parameterNumber":2,"parameterNumberName":"U-component_of_WINDS"},"data":[0,0,0,0,0,0,0,0,0,0,0,0,0,0,0,0,0,0,0,0,0,0,0,0,0,0,0,0,0,0,0,0,0,0,0,0,0,0,0,0,0,0,0,0,0,0,0,0,0,0,0,0,0,0,0,0,0,0,-0.3025,-0.3023,0,-0.2913,-0.2912,-0.2911,-0.2869,-0.287,-0.287,-0.287,-0.2756,-0.2753,-0.275,0,0,0,0,0,0,0,0,0,0,0,0,0,-0.3201,-0.3198,-0.3025,-0.3023,-0.3022,-0.2914,-0.2912,-0.291,-0.2869,-0.287,-0.287,-0.287,-0.2757,-0.2753,-0.2749,0,0,0,0,0,0,0,0,0,0,0,0,0,-0.311,-0.3197,-0.3025,-0.2988,-0.2984,-0.2914,-0.2912,-0.291,-0.2869,-0.287,-0.287,-0.2871,-0.2759,-0.2754,-0.2749,-0.2707,0,0,-0.2733,-0.2731,0,0,0,0,0,0,0,0,-0.3116,-0.3104,-0.2995,-0.2991,-0.2986,-0.2906,-0.2932,-0.2842,-0.2869,-0.2913,-0.287,-0.2871,-0.2805,-0.2797,-0.2775,-0.2702,-0.2697,-0.2733,-0.273,-0.2728,-0.2726,0,0,0,0,0,0,0,-0.3122,-0.3108,-0.2981,-0.2994,-0.2988,-0.2977,-0.2965,-0.2915,-0.2857,-0.2909,-0.2906,-0.2893,-0.2803,-0.278,-0.2772,-0.2695,-0.2733,-0.2728,-0.2725,-0.2723,-0.258,-0.258,0,0,0,0,0,0,-0.3134,-0.3114,-0.2984,-0.2977,-0.3053,-0.2973,-0.296,-0.2931,-0.2858,-0.2847,-0.2893,-0.2892,-0.2788,-0.2778,-0.2767,-0.2712,-0.2728,-0.2723,-0.272,-0.2581,-0.258,-0.2579,0,0,0,0,0,0,-0.3138,-0.3123,-0.2989,-0.3045,-0.3027,-0.297,-0.2938,-0.2928,-0.2905,-0.2846,-0.2835,-0.2879,-0.2788,-0.2775,-0.2722,-0.2708,-0.2721,-0.2716,-0.2582,-0.2581,-0.258,-0.2603,0,0,0,0,0,0,-0.3143,-0.3125,-0.3109,-0.3045,-0.3024,-0.2945,-0.2937,-0.2926,-0.2896,-0.2894,-0.283,-0.282,-0.2787,-0.273,-0.2717,-0.2701,-0.2712,-0.2583,-0.2582,-0.258,-0.2603,-0.2603,-0.2602,0,0,0,0,0,-0.315,-0.312,-0.3108,-0.3093,-0.3003,-0.2945,-0.2933,-0.2895,-0.2895,-0.2878,-0.284,-0.2822,-0.2712,-0.2725,-0.271,-0.2692,-0.2584,-0.2582,-0.258,-0.2603,-0.2603,-0.2602,0,0,0,0,0,0,-0.3184,-0.3111,-0.3097,-0.3045,-0.3001,-0.2938,-0.2915,-0.2896,-0.2852,-0.2851,-0.2807,-0.2793,-0.2743,-0.2713,-0.2728,-0.2647,-0.2646,-0.2642,-0.2669,-0.2668,-0.2668,-0.2676,-0.2708,0,0,0,0,0,-0.3186,-0.3145,-0.3083,-0.3044,-0.3022,-0.2973,-0.2946,-0.2921,-0.2874,-0.2855,-0.2813,-0.2768,-0.2722,-0.2694,-0.2649,-0.2599,-0.2584,-0.2579,-0.2579,-0.2579,-0.2575,-0.2545,-0.2542,-0.2574,-0.2574,-0.2574,0,0,-0.3188,-0.3143,-0.312,-0.3049,-0.3012,-0.297,-0.2957,-0.2914,-0.2882,-0.2848,-0.2796,-0.2763,-0.271,-0.2658,-0.2633,-0.2631,-0.2563,-0.2577,-0.2577,-0.2573,-0.2543,-0.254,-0.2537,-0.2573,-0.2573,-0.2573,0,0,-0.3172,-0.3134,-0.3096,-0.3059,-0.3003,-0.297,-0.2961,-0.29,-0.2877,-0.2824,-0.2797,-0.2758,-0.2682,-0.2644,-0.2615,-0.2584,-0.2565,-0.257,-0.2568,-0.2539,-0.2536,-0.2534,-0.2521,-0.2517,-0.2567,-0.2567,-0.2567,0,-0.3182,-0.3118,-0.3079,-0.3037,-0.3006,-0.2973,-0.2934,-0.29,-0.2832,-0.2811,-0.281,-0.2712,-0.2674,-0.2612,-0.2604,-0.2583,-0.257,-0.2577,-0.254,-0.2537,-0.2534,-0.2521,-0.2516,-0.2568,-0.2568,-0.2568,-0.2568,0,-0.3133,-0.3089,-0.3065,-0.3,-0.2966,-0.2926,-0.288,-0.2851,-0.2829,-0.2796,-0.2741,-0.2694,-0.2639,-0.2622,-0.2601,-0.2557,-0.2557,-0.2548,-0.2546,-0.2532,-0.2519,-0.2514,-0.2569,-0.2569,-0.2569,-0.2568,0,0,-0.3135,-0.3048,-0.304,-0.3009,-0.2945,-0.291,-0.2867,-0.2813,-0.2788,-0.2742,-0.2705,-0.2641,-0.2632,-0.2599,-0.2573,-0.2547,-0.2523,-0.2541,-0.2539,-0.2538,-0.247,-0.2476,-0.2471,-0.2511,-0.251,-0.2509,-0.2474,0,-0.3109,-0.3031,-0.2994,-0.2933,-0.2891,-0.2859,-0.2822,-0.2778,-0.2746,-0.2705,-0.267,-0.2624,-0.2617,-0.2597,-0.257,-0.2532,-0.2508,-0.2534,-0.2474,-0.2473,-0.2488,-0.2464,-0.2471,-0.244,-0.2469,-0.2468,-0.2467,0,-0.3068,-0.3021,-0.2956,-0.2895,-0.2876,-0.2843,-0.2789,-0.2752,-0.2701,-0.2679,-0.2642,-0.2616,-0.257,-0.2572,-0.2506,-0.2524,-0.2498,-0.2475,-0.2473,-0.2465,-0.2469,-0.2455,-0.243,-0.2425,-0.2459,-0.246,-0.2461,0,-0.3074,-0.2995,-0.2945,-0.292,-0.2848,-0.2826,-0.2795,-0.2745,-0.2714,-0.2667,-0.2646,-0.2595,-0.2566,-0.2527,-0.2488,-0.2493,-0.2425,-0.2425,-0.2405,-0.2406,-0.2392,-0.2393,-0.2361,-0.2377,-0.2377,-0.2377,-0.2377,0,-0.3048,-0.3009,-0.2947,-0.2916,-0.2871,-0.2829,-0.2785,-0.2752,-0.2707,-0.2669,-0.2638,-0.2603,-0.2554,-0.2512,-0.2481,-0.2431,-0.2418,-0.2399,-0.2391,-0.2401,-0.2403,-0.2382,-0.2383,-0.2376,-0.2376,-0.2377,-0.2377,0,-0.3047,-0.3004,-0.2947,-0.2883,-0.2866,-0.2836,-0.2781,-0.2749,-0.2716,-0.2667,-0.2654,-0.26,-0.255,-0.2507,-0.244,-0.2419,-0.2367,-0.2358,-0.2384,-0.2379,-0.2361,-0.2363,-0.2314,-0.2304,-0.2329,-0.2328,-0.2328,0,-0.3033,-0.3001,-0.2934,-0.2906,-0.2875,-0.283,-0.2798,-0.2755,-0.2723,-0.2662,-0.2638,-0.2585,-0.254,-0.246,-0.2415,-0.2364,-0.2353,-0.2339,-0.2345,-0.2355,-0.2351,-0.2352,-0.2348,-0.2338,-0.2338,-0.2338,-0.2338,0,-0.3011,-0.2991,-0.2946,-0.2893,-0.2856,-0.2812,-0.2768,-0.2747,-0.2695,-0.2661,-0.2608,-0.2573,-0.2504,-0.2452,-0.2395,-0.2363,-0.2341,-0.2337,-0.2329,-0.2339,-0.2354,-0.2344,-0.2381,-0.2338,-0.2338,-0.2338,-0.2338,-0.2338,-0.3002,-0.2972,-0.2919,-0.287,-0.2832,-0.2791,-0.2757,-0.2719,-0.2674,-0.2615,-0.2592,-0.2538,-0.2487,-0.2408,-0.2376,-0.2332,-0.2329,-0.2319,-0.2316,-0.2314,-0.2314,-0.2362,-0.2322,-0.2322,-0.2322,-0.2322,-0.2322,0,-0.2978,-0.2942,-0.2897,-0.2835,-0.2796,-0.2779,-0.2729,-0.2697,-0.265,-0.2603,-0.256,-0.2498,-0.2447,-0.2398,-0.2343,-0.2318,-0.2307,-0.2305,-0.2306,-0.2298,-0.2321,-0.2332,-0.2315,-0.2315,-0.2315,-0.2315,-0.2315,-0.2315,-0.2961,-0.2909,-0.2882,-0.2811,-0.2775,-0.2721,-0.2694,-0.2655,-0.2618,-0.2551,-0.2507,-0.2476,-0.2428,-0.237,-0.2321,-0.2308,-0.2289,-0.2289,-0.2274,-0.2296,-0.2297,-0.2298,-0.2308,-0.2286,-0.2286,-0.2254,-0.2254,-0.2253]},{"header":{"parameterUnit":"m.s-1","parameterCategory":1,"la1":30.2991,"la2":30.254,"lo1":-89.0895,"lo2":-89.0444,"dy":0.0017,"dx":0.0017,"nx":28,"ny":28,"refTime":"2026-01-07T09:00:00:Z","depth":0,"parameterNumber":3,"parameterNumberName":"V-component_of_WINDS"},"data":[0,0,0,0,0,0,0,0,0,0,0,0,0,0,0,0,0,0,0,0,0,0,0,0,0,0,0,0,0,0,0,0,0,0,0,0,0,0,0,0,0,0,0,0,0,0,0,0,0,0,0,0,0,0,0,0,0,0,2.1907,2.1906,0,2.1904,2.1904,2.1904,2.1878,2.1878,2.1877,2.1876,2.1872,2.1873,2.1873,0,0,0,0,0,0,0,0,0,0,0,0,0,2.1889,2.189,2.1907,2.1906,2.1906,2.1904,2.1904,2.1904,2.1878,2.1878,2.1877,2.1876,2.1872,2.1873,2.1873,0,0,0,0,0,0,0,0,0,0,0,0,0,2.1893,2.189,2.1907,2.1894,2.1892,2.1904,2.1904,2.1904,2.1879,2.1878,2.1877,2.1876,2.1872,2.1873,2.1873,2.1897,0,0,2.1876,2.1876,0,0,0,0,0,0,0,0,2.1892,2.1893,2.1895,2.1894,2.1893,2.189,2.1896,2.1901,2.1879,2.1884,2.1876,2.1875,2.1879,2.1879,2.1881,2.1897,2.1896,2.1876,2.1876,2.1876,2.1877,0,0,0,0,0,0,0,2.1892,2.1893,2.1905,2.1896,2.1894,2.1888,2.1887,2.1897,2.1887,2.1883,2.1881,2.1881,2.1878,2.188,2.188,2.1896,2.1876,2.1876,2.1877,2.1877,2.1933,2.1934,0,0,0,0,0,0,2.1894,2.1893,2.1905,2.1905,2.189,2.1889,2.1888,2.1892,2.1887,2.1885,2.1882,2.188,2.1879,2.188,2.188,2.1909,2.1876,2.1877,2.1878,2.1932,2.1933,2.1935,0,0,0,0,0,0,2.1894,2.1895,2.1906,2.1899,2.19,2.189,2.1895,2.1893,2.1895,2.1886,2.1884,2.1886,2.1879,2.1879,2.1893,2.1908,2.1877,2.1878,2.1931,2.1933,2.1934,2.1965,0,0,0,0,0,0,2.1893,2.1895,2.1904,2.1899,2.19,2.1919,2.1896,2.1893,2.1896,2.1893,2.1889,2.1887,2.1878,2.1892,2.1894,2.1909,2.1879,2.193,2.1932,2.1933,2.1963,2.1968,2.1972,0,0,0,0,0,2.1893,2.1912,2.1905,2.1906,2.1911,2.192,2.1921,2.191,2.1897,2.1906,2.1901,2.1887,2.1906,2.1894,2.1896,2.1911,2.1929,2.1931,2.1933,2.1961,2.1967,2.1972,0,0,0,0,0,0,2.1919,2.1911,2.1903,2.1922,2.1922,2.1916,2.1927,2.1916,2.1919,2.1917,2.1903,2.1902,2.1919,2.1916,2.1903,2.1934,2.1915,2.1918,2.1936,2.1941,2.1945,2.1947,2.1879,0,0,0,0,0,2.1927,2.1935,2.1928,2.1945,2.1946,2.1936,2.194,2.1932,2.1931,2.1931,2.1926,2.1926,2.1932,2.1936,2.1941,2.1962,2.1961,2.1973,2.1978,2.1981,2.1984,2.1997,2.2003,2.1942,2.1942,2.1942,0,0,2.1943,2.194,2.1946,2.195,2.195,2.1959,2.1937,2.1946,2.1953,2.1932,2.1946,2.1943,2.1941,2.196,2.1967,2.1958,2.2001,2.1984,2.1987,2.1988,2.2,2.2006,2.2011,2.1944,2.1944,2.1943,0,0,2.1978,2.1976,2.1992,2.1991,2.1991,2.1984,2.1988,2.1984,2.1981,2.1995,2.198,2.1987,2.1997,2.1997,2.1999,2.2035,2.2023,2.2037,2.2061,2.2073,2.2078,2.2082,2.2097,2.2102,2.204,2.204,2.204,0,2.1999,2.2013,2.2,2.2012,2.2015,2.1997,2.2012,2.2012,2.2013,2.2016,2.2004,2.2018,2.2015,2.2035,2.2044,2.2045,2.2049,2.2038,2.2079,2.2083,2.2086,2.21,2.2106,2.2041,2.2041,2.2041,2.2041,0,2.2039,2.2048,2.206,2.2063,2.2067,2.208,2.2071,2.2076,2.2067,2.2062,2.2077,2.2073,2.2078,2.2082,2.2073,2.21,2.2094,2.2081,2.2062,2.2094,2.2107,2.2112,2.2044,2.2043,2.2043,2.2042,0,0,2.2091,2.2087,2.2092,2.2094,2.2092,2.2099,2.2112,2.2117,2.2123,2.2123,2.2135,2.2144,2.2132,2.2134,2.2125,2.2136,2.2167,2.2121,2.2121,2.2131,2.2198,2.221,2.2216,2.2158,2.2159,2.216,2.2199,0,2.2127,2.2149,2.2139,2.2163,2.2172,2.2155,2.2167,2.2167,2.2162,2.217,2.2164,2.2172,2.2155,2.2156,2.2166,2.2161,2.218,2.2158,2.217,2.217,2.2173,2.2223,2.2234,2.2272,2.2204,2.2205,2.2205,0,2.2171,2.2176,2.2201,2.2199,2.2202,2.2213,2.2217,2.2224,2.2224,2.222,2.2223,2.2211,2.2224,2.2204,2.2222,2.2207,2.2211,2.2209,2.221,2.2213,2.2191,2.2228,2.2283,2.2289,2.2213,2.2212,2.2212,0,2.221,2.2221,2.2238,2.224,2.2237,2.2245,2.2244,2.2243,2.2248,2.2251,2.2254,2.2259,2.2262,2.2266,2.2256,2.2242,2.2276,2.2255,2.2274,2.2275,2.2284,2.2283,2.2342,2.2283,2.2283,2.2283,2.2283,0,2.2252,2.2268,2.2256,2.2267,2.2285,2.2273,2.2291,2.2288,2.2287,2.2297,2.2282,2.2291,2.2277,2.2286,2.2278,2.2295,2.2296,2.2294,2.2292,2.2296,2.2297,2.23,2.2298,2.2284,2.2284,2.2284,2.2283,0,2.2298,2.229,2.2308,2.2304,2.2304,2.2318,2.2314,2.2324,2.2319,2.2332,2.2334,2.2325,2.2334,2.2325,2.2333,2.2328,2.2351,2.2344,2.2352,2.2351,2.2371,2.237,2.2435,2.2444,2.2378,2.2378,2.2379,0,2.2327,2.2339,2.2337,2.2343,2.2344,2.2353,2.2358,2.2346,2.2351,2.2353,2.2363,2.2371,2.2377,2.2392,2.2386,2.2392,2.2387,2.2409,2.2388,2.2393,2.239,2.239,2.2392,2.2414,2.2415,2.2416,2.2416,0,2.2379,2.2374,2.2382,2.2389,2.2395,2.2399,2.2402,2.2408,2.2396,2.2403,2.2412,2.2417,2.2426,2.2434,2.2439,2.2438,2.2426,2.2423,2.2428,2.2434,2.2438,2.2438,2.2366,2.2422,2.2421,2.2421,2.2421,2.242,2.2418,2.243,2.243,2.244,2.2441,2.2444,2.2454,2.245,2.2458,2.2465,2.2457,2.2469,2.2469,2.2475,2.2475,2.2485,2.2475,2.2482,2.2484,2.2487,2.2491,2.2435,2.2485,2.2485,2.2485,2.2484,2.2484,0,2.2472,2.2471,2.248,2.2486,2.2493,2.2481,2.2484,2.2491,2.2502,2.2503,2.251,2.2521,2.2529,2.2525,2.2532,2.254,2.2535,2.2543,2.2543,2.2543,2.2498,2.2494,2.2547,2.2547,2.2547,2.2547,2.2547,2.2547,2.25,2.2519,2.2515,2.2534,2.2534,2.2546,2.2549,2.2553,2.2554,2.2568,2.2575,2.2572,2.2571,2.2578,2.2585,2.2583,2.2588,2.2598,2.2594,2.2552,2.2546,2.254,2.2537,2.2598,2.2598,2.264,2.264,2.264]}]]